This is the latest recevied weather packets stored in our database for station/object KE8RXN. If no packets are shown the sender has not sent any weather packets the latest 10 day(s).
| Time | Temp. | Humidity | Pressure | Rain* | Wind** | Luminosity | Snow |
|---|---|---|---|---|---|---|---|
| 1777984888 | 8.89° C | 76% | 1010 hPa | 0 mm | - | 38 W/m² | - |
| 1777984584 | 8.89° C | 77% | 1010 hPa | 0 mm | - | 66 W/m² | - |
| 1777984281 | 8.89° C | 77% | 1010 hPa | 0 mm | - | 56 W/m² | - |
| 1777983978 | 8.89° C | 77% | 1009.3 hPa | 0 mm | - | 134 W/m² | - |
| 1777983675 | 8.89° C | 77% | 1009.1 hPa | 0 mm | - | 96 W/m² | - |
| 1777983371 | 8.89° C | 77% | 1009 hPa | 0 mm | - | 58 W/m² | - |
| 1777983068 | 8.89° C | 77% | 1008.9 hPa | 0 mm | - | 49 W/m² | - |
| 1777982764 | 8.89° C | 76% | 1009 hPa | 0 mm | - | 42 W/m² | - |
| 1777982460 | 8.89° C | 76% | 1009 hPa | 0 mm | - | 25 W/m² | - |
| 1777982154 | 8.89° C | 75% | 1008.7 hPa | 0 mm | - | 45 W/m² | - |
| 1777981851 | 8.89° C | 75% | 1009 hPa | 0 mm | - | 69 W/m² | - |
| 1777981543 | 8.89° C | 76% | 1009 hPa | 0 mm | - | 68 W/m² | - |
| 1777981239 | 8.89° C | 76% | 1008.8 hPa | 0 mm | - | 61 W/m² | - |
| 1777980936 | 8.89° C | 78% | 1008.8 hPa | 0 mm | - | 44 W/m² | - |
| 1777980633 | 8.89° C | 79% | 1008.8 hPa | 0 mm | - | 49 W/m² | - |
| 1777980328 | 8.89° C | 79% | 1008.5 hPa | 0 mm | - | 27 W/m² | - |
| 1777980027 | 8.89° C | 79% | 1008.2 hPa | 0 mm | - | 28 W/m² | - |
| 1777979726 | 8.89° C | 78% | 1008.2 hPa | 0 mm | - | 27 W/m² | - |
| 1777979422 | 8.89° C | 78% | 1008.2 hPa | 0 mm | - | 25 W/m² | - |
| 1777979120 | 8.89° C | 78% | 1008 hPa | 0 mm | - | 26 W/m² | - |
| 1777978816 | 8.89° C | 78% | 1008.1 hPa | 0 mm | - | 19 W/m² | - |
| 1777978513 | 8.33° C | 79% | 1007.9 hPa | 0 mm | - | 15 W/m² | - |
| 1777978209 | 8.33° C | 79% | 1007.9 hPa | 0 mm | - | 13 W/m² | - |
| 1777977906 | 8.33° C | 79% | 1007.6 hPa | 0 mm | - | 7 W/m² | - |
| 1777977603 | 8.33° C | 79% | 1007.4 hPa | 0 mm | - | 4 W/m² | - |
* Rain latest hour (hover to see other rain measurements)
** Current wind speed in m/s (hover to see current wind gust speed)